Flag for Angola Weather past 2 weeks in Huambo, Angola

Now
75 °F

Broken clouds.


Feels Like: 77 °F
Forecast: 41 / 77 °F
Wind: 10 mph from West

Location: Luanda Airport

Current Time: Jul 23, 2014 at 4:50:13 PM

Latest Report: Jul 23, 2014 at 3:00 PM


Visibility: N/A

Pressure: 29.98 "Hg

Humidity: 65%

Dew point: 63 °F

Location of HuamboLocation

Historic Weather in Huambo — Graph

°F

Huambo temperature yesterday

Maximum temperature yesterday: 73 °F (at 2:00 PM)
Minimum temperature yesterday: 66 °F (at 1:00 AM)
Average temperature yesterday: 70 °F

Past Weeks' High & Low Weather Summary

 TemperatureHumidityPressure
High84 °F (Jul 14, 2:00 AM)100% (Jul 12, 1:00 AM)30.30 "Hg (Jul 12, 1:00 AM)
Low63 °F (Jul 10, 4:00 AM)38% (Jul 19, 7:00 PM)29.92 "Hg (Jul 14, 4:05 PM)
Average69 °F78%30.04 "Hg
* Reported Jul 8 3:00 PM — Jul 23 3:00 PM, Huambo, Weather by CustomWeather, © 2014

Note: Actual official high and low records may vary slightly from our data, if they occured in-between our weather recording intervals... More about our weather records

Advertising

Huambo weather history for previous 24 hours

 ConditionsComfort  
Time TempWeatherWind HumidityBarometerVisibility
3:00 PM
Jul 23
75 °FBroken clouds.10 mph65%29.98 "HgN/A
2:00 PM73 °FPartly sunny.12 mph74%30.01 "HgN/A
12:00 PM77 °FPartly sunny.5 mph61%30.04 "HgN/A
11:00 AM75 °FPartly sunny.6 mph65%30.07 "Hg4 mi
10:00 AM73 °FFog.5 mph69%30.09 "Hg2 mi
8:00 AM68 °FFog.6 mph83%30.09 "Hg2 mi
6:00 AM68 °FPassing clouds.2 mph83%30.04 "HgN/A
5:00 AM66 °FPassing clouds.6 mph94%30.04 "HgN/A
4:00 AM66 °FPassing clouds.2 mph88%30.01 "HgN/A
3:00 AM66 °FPassing clouds.2 mph88%30.01 "HgN/A
2:00 AM66 °FPassing clouds.2 mph88%30.01 "HgN/A
1:00 AM66 °FPassing clouds.5 mph94%30.04 "HgN/A
12:00 AM66 °FPassing clouds.5 mph94%30.01 "HgN/A
6:00 PM
Jul 22
68 °FPassing clouds.6 mph88%29.95 "Hg10 mi
5:00 PM70 °FPassing clouds.6 mph83%29.92 "HgN/A
4:00 PM72 °FSunny.8 mph73%29.92 "Hg10 mi
Weather by CustomWeather, © 2014

See weather overviewHow to use our weather pages